| time (UTC) | temp F | wind direction | speed MPH | gust MPH | rain 1hr in | rain 24hr in | rain mn in | humidity % | barometer mb |
| 20260508230109 | 59 | 163 | 3.0 | 12.0 | 0.00 | 0.00 | 0.00 | 56 | 1006.5 |
| 20260508224546 | 60 | 170 | 6.0 | 12.0 | 0.00 | 0.00 | 0.00 | 52 | 1006.7 |
| 20260508223045 | 61 | 154 | 1.0 | 14.0 | 0.00 | 0.00 | 0.00 | 49 | 1006.8 |
| 20260508221543 | 60 | 199 | 4.0 | 13.0 | 0.00 | 0.00 | 0.00 | 44 | 1006.9 |
| 20260508220109 | 61 | 171 | 3.0 | 15.0 | 0.00 | 0.00 | 0.00 | 47 | 1007.0 |
| 20260508214538 | 61 | 176 | 2.0 | 10.0 | 0.00 | 0.00 | 0.00 | 46 | 1007.1 |
| 20260508213052 | 61 | 181 | 4.0 | 14.0 | 0.00 | 0.00 | 0.00 | 45 | 1007.0 |
| 20260508211546 | 61 | 142 | 5.0 | 14.0 | 0.00 | 0.00 | 0.00 | 41 | 1007.0 |
| 20260508210040 | 61 | 143 | 5.0 | 12.0 | 0.00 | 0.00 | 0.00 | 43 | 1007.2 |
| 20260508204546 | 62 | 0 | 4.0 | 10.0 | 0.00 | 0.00 | 0.00 | 34 | 1007.2 |
| 20260508203047 | 62 | 275 | 6.0 | 10.0 | 0.00 | 0.00 | 0.00 | 33 | 1007.5 |
| 20260508201543 | 62 | 261 | 4.0 | 10.0 | 0.00 | 0.00 | 0.00 | 32 | 1007.8 |
| 20260508200039 | 61 | 201 | 4.0 | 10.0 | 0.00 | 0.00 | 0.00 | 33 | 1008.2 |
| 20260508194540 | 60 | 0 | 2.0 | 19.0 | 0.00 | 0.00 | 0.00 | 34 | 1008.3 |
| 20260508193040 | 60 | 275 | 5.0 | 10.0 | 0.00 | 0.00 | 0.00 | 31 | 1008.4 |
| 20260508191544 | 60 | 0 | 5.0 | 10.0 | 0.00 | 0.00 | 0.00 | 35 | 1008.6 |
| 20260508190048 | 60 | 215 | 3.0 | 15.0 | 0.00 | 0.00 | 0.00 | 34 | 1008.9 |
| 20260508184546 | 60 | 298 | 7.0 | 12.0 | 0.00 | 0.00 | 0.00 | 33 | 1009.0 |
| 20260508183043 | 59 | 256 | 4.0 | 9.0 | 0.00 | 0.00 | 0.00 | 38 | 1009.2 |
| 20260508181604 | 58 | 0 | 0.0 | 10.0 | 0.00 | 0.00 | 0.00 | 35 | 1009.4 |
| 20260508180056 | 58 | 0 | 1.0 | 8.0 | 0.00 | 0.00 | 0.00 | 42 | 1009.7 |
| 20260508174551 | 59 | 254 | 2.0 | 8.0 | 0.00 | 0.00 | 0.00 | 35 | 1010.0 |
| 20260508173047 | 59 | 253 | 5.0 | 11.0 | 0.00 | 0.00 | 0.00 | 39 | 1010.1 |
| 20260508171539 | 58 | 290 | 3.0 | 8.0 | 0.00 | 0.00 | 0.00 | 36 | 1010.2 |
| 20260508170038 | 57 | 0 | 0.0 | 8.0 | 0.00 | 0.00 | 0.00 | 38 | 1010.4 |
| 20260508164545 | 58 | 232 | 3.0 | 10.0 | 0.00 | 0.00 | 0.00 | 31 | 1010.6 |
| 20260508163045 | 57 | 0 | 0.0 | 11.0 | 0.00 | 0.00 | 0.00 | 32 | 1010.6 |
| 20260508161539 | 57 | 248 | 2.0 | 8.0 | 0.00 | 0.00 | 0.00 | 37 | 1010.7 |
| 20260508160039 | 56 | 0 | 0.0 | 7.0 | 0.00 | 0.00 | 0.00 | 40 | 1010.7 |
| 20260508154538 | 56 | 268 | 4.0 | 9.0 | 0.00 | 0.00 | 0.00 | 42 | 1011.0 |
| 20260508153047 | 55 | 275 | 0.0 | 9.0 | 0.00 | 0.00 | 0.00 | 40 | 1011.1 |
| 20260508151545 | 55 | 333 | 2.0 | 10.0 | 0.00 | 0.00 | 0.00 | 41 | 1011.1 |
| 20260508150046 | 54 | 248 | 3.0 | 8.0 | 0.00 | 0.00 | 0.00 | 40 | 1011.2 |
| 20260508144543 | 54 | 0 | 1.0 | 8.0 | 0.00 | 0.00 | 0.00 | 47 | 1011.3 |
| 20260508143039 | 53 | 0 | 0.0 | 9.0 | 0.00 | 0.00 | 0.00 | 47 | 1011.4 |
| 20260508141546 | 53 | 0 | 1.0 | 6.0 | 0.00 | 0.00 | 0.00 | 49 | 1011.4 |
| 20260508140041 | 52 | 178 | 2.0 | 6.0 | 0.00 | 0.00 | 0.00 | 53 | 1011.5 |
| 20260508134556 | 51 | 74 | 0.0 | 5.0 | 0.00 | 0.00 | 0.00 | 53 | 1011.5 |
| 20260508133045 | 50 | 0 | 0.0 | 0.0 | 0.00 | 0.00 | 0.00 | 58 | 1011.5 |
| 20260508131544 | 50 | 0 | 0.0 | 2.0 | 0.00 | 0.00 | 0.00 | 60 | 1011.6 |
| 20260508130041 | 49 | 0 | 0.0 | 0.0 | 0.00 | 0.00 | 0.00 | 65 | 1011.6 |
| 20260508124538 | 48 | 0 | 0.0 | 0.0 | 0.00 | 0.00 | 0.00 | 67 | 1011.4 |
| 20260508123054 | 47 | 0 | 0.0 | 0.0 | 0.00 | 0.00 | 0.00 | 74 | 1011.3 |
| 20260508121546 | 44 | 0 | 0.0 | 0.0 | 0.00 | 0.00 | 0.00 | 82 | 1011.1 |
| 20260508120046 | 42 | 0 | 0.0 | 0.0 | 0.00 | 0.00 | 0.00 | 87 | 1011.1 |
| 20260508114549 | 40 | 0 | 0.0 | 0.0 | 0.00 | 0.00 | 0.00 | 90 | 1011.0 |
| 20260508113045 | 38 | 0 | 0.0 | 0.0 | 0.00 | 0.00 | 0.00 | 90 | 1010.8 |
| 20260508111546 | 36 | 0 | 0.0 | 0.0 | 0.00 | 0.00 | 0.00 | 90 | 1010.8 |
| 20260508110048 | 35 | 0 | 0.0 | 0.0 | 0.00 | 0.00 | 0.00 | 89 | 1010.8 |
| 20260508104544 | 35 | 0 | 0.0 | 0.0 | 0.00 | 0.00 | 0.00 | 88 | 1010.7 |
| 20260508103048 | 35 | 0 | 0.0 | 0.0 | 0.00 | 0.00 | 0.00 | 88 | 1010.7 |
| 20260508101541 | 36 | 0 | 0.0 | 0.0 | 0.00 | 0.00 | 0.00 | 88 | 1010.8 |
| 20260508100039 | 36 | 0 | 0.0 | 0.0 | 0.00 | 0.00 | 0.00 | 87 | 1010.9 |
| 20260508094600 | 36 | 0 | 0.0 | 0.0 | 0.00 | 0.00 | 0.00 | 87 | 1011.0 |
| 20260508093044 | 37 | 0 | 0.0 | 0.0 | 0.00 | 0.00 | 0.00 | 86 | 1011.0 |
| 20260508091546 | 39 | 0 | 0.0 | 0.0 | 0.00 | 0.00 | 0.00 | 85 | 1011.1 |
| 20260508090050 | 39 | 0 | 0.0 | 0.0 | 0.00 | 0.00 | 0.00 | 84 | 1011.1 |
| 20260508084539 | 40 | 0 | 0.0 | 0.0 | 0.00 | 0.00 | 0.00 | 83 | 1011.1 |
| 20260508083041 | 40 | 0 | 0.0 | 0.0 | 0.00 | 0.00 | 0.00 | 85 | 1011.3 |
| 20260508081558 | 40 | 0 | 0.0 | 6.0 | 0.00 | 0.00 | 0.00 | 84 | 1011.1 |
| 20260508080037 | 40 | 0 | 0.0 | 0.0 | 0.00 | 0.00 | 0.00 | 83 | 1010.7 |
| 20260508074546 | 40 | 0 | 0.0 | 0.0 | 0.00 | 0.00 | 0.00 | 83 | 1010.7 |
| 20260508073044 | 40 | 0 | 0.0 | 0.0 | 0.00 | 0.00 | 0.00 | 81 | 1011.2 |
| 20260508071545 | 40 | 0 | 0.0 | 0.0 | 0.00 | 0.00 | 0.00 | 81 | 1011.1 |
| 20260508070042 | 41 | 0 | 0.0 | 0.0 | 0.00 | 0.00 | 0.00 | 79 | 1011.2 |
| 20260508064539 | 41 | 0 | 0.0 | 0.0 | 0.00 | 0.00 | 0.00 | 78 | 1011.2 |
| 20260508063051 | 41 | 0 | 0.0 | 0.0 | 0.00 | 0.00 | 0.00 | 76 | 1011.5 |
| 20260508061552 | 41 | 0 | 0.0 | 0.0 | 0.00 | 0.00 | 0.00 | 77 | 1011.4 |
| 20260508060052 | 41 | 0 | 0.0 | 0.0 | 0.00 | 0.00 | 0.00 | 78 | 1011.5 |
| 20260508054544 | 41 | 0 | 0.0 | 0.0 | 0.00 | 0.00 | 0.00 | 78 | 1011.6 |
| 20260508053042 | 41 | 0 | 0.0 | 4.0 | 0.00 | 0.00 | 0.00 | 80 | 1011.7 |
| 20260508051540 | 40 | 0 | 0.0 | 5.0 | 0.00 | 0.00 | 0.00 | 82 | 1011.8 |
| 20260508050048 | 40 | 0 | 0.0 | 0.0 | 0.00 | 0.00 | 0.00 | 80 | 1011.6 |
| 20260508044542 | 41 | 0 | 0.0 | 0.0 | 0.00 | 0.00 | 0.00 | 79 | 1011.6 |
| 20260508043044 | 41 | 0 | 0.0 | 0.0 | 0.00 | 0.00 | 0.00 | 78 | 1011.3 |
| 20260508041551 | 42 | 0 | 0.0 | 0.0 | 0.00 | 0.00 | 0.00 | 76 | 1011.3 |
| 20260508040046 | 43 | 0 | 0.0 | 3.0 | 0.00 | 0.00 | 0.00 | 75 | 1011.3 |
| 20260508034548 | 43 | 0 | 0.0 | 0.0 | 0.00 | 0.00 | 0.00 | 76 | 1011.4 |
| 20260508033047 | 43 | 0 | 0.0 | 0.0 | 0.00 | 0.00 | 0.00 | 73 | 1011.4 |
| 20260508031544 | 43 | 0 | 0.0 | 0.0 | 0.00 | 0.00 | 0.00 | 72 | 1011.4 |
| 20260508030043 | 43 | 0 | 0.0 | 0.0 | 0.00 | 0.00 | 0.00 | 71 | 1011.6 |
| 20260508024547 | 44 | 0 | 0.0 | 0.0 | 0.00 | 0.00 | 0.00 | 71 | 1011.5 |
| 20260508023038 | 44 | 0 | 0.0 | 0.0 | 0.00 | 0.00 | 0.00 | 71 | 1011.5 |
| 20260508021544 | 44 | 0 | 0.0 | 0.0 | 0.00 | 0.00 | 0.00 | 71 | 1011.5 |
| 20260508020046 | 43 | 0 | 0.0 | 0.0 | 0.00 | 0.00 | 0.00 | 73 | 1011.5 |
| 20260508014547 | 44 | 0 | 0.0 | 0.0 | 0.00 | 0.00 | 0.00 | 69 | 1011.3 |
| 20260508013046 | 45 | 0 | 0.0 | 0.0 | 0.00 | 0.00 | 0.00 | 64 | 1011.1 |
| 20260508011541 | 46 | 0 | 0.0 | 4.0 | 0.00 | 0.00 | 0.00 | 63 | 1011.2 |
| 20260508010046 | 46 | 0 | 0.0 | 0.0 | 0.00 | 0.00 | 0.00 | 62 | 1011.2 |
| 20260508004546 | 47 | 0 | 0.0 | 4.0 | 0.00 | 0.00 | 0.00 | 60 | 1011.0 |
| 20260508003045 | 47 | 0 | 0.0 | 1.0 | 0.00 | 0.00 | 0.00 | 59 | 1010.7 |
| 20260508001544 | 48 | 0 | 0.0 | 7.0 | 0.00 | 0.00 | 0.00 | 56 | 1010.6 |
| 20260508000049 | 49 | 0 | 0.0 | 4.0 | 0.00 | 0.00 | 0.00 | 55 | 1010.5 |
| 20260507234539 | 49 | 74 | 0.0 | 4.0 | 0.00 | 0.00 | 0.00 | 53 | 1010.4 |
| 20260507233048 | 50 | 0 | 0.0 | 5.0 | 0.00 | 0.00 | 0.00 | 52 | 1010.4 |
| 20260507231546 | 50 | 0 | 1.0 | 5.0 | 0.00 | 0.00 | 0.00 | 51 | 1010.4 |